Theta_e
301 301 301 301 301 301 301 301 301 301 301 302 302 303 303 303 305 306 308 311 311 313 314 312 317 320 321 320 319 319 316 318 318 320 322 326 323 327 328 329 330 337 350 350 347
301 301 301 301 300 300 301 301 301 301 301 302 302 302 302 302 303 307 315 315 314 312 312 315 316 317 319 322 321 318 316 318 318 319 321 323 325 326 326 326 327 354 351 349 348
301 301 301 301 301 301 301 302 302 303 302 302 302 302 302 301 307 314 320 316 315 313 314 312 315 315 316 322 322 320 320 319 320 321 321 322 323 324 325 324 326 340 357 351 349
302 302 302 303 303 303 302 302 303 303 303 303 303 302 302 304 312 322 321 316 315 315 314 314 313 314 315 317 322 321 321 321 320 321 320 320 322 321 321 324 326 327 347 356 354
303 303 304 304 303 303 304 304 304 305 305 304 303 302 303 310 311 310 314 316 315 314 317 317 316 314 313 316 319 320 321 322 320 320 320 320 320 320 320 322 324 325 326 346 351
306 306 306 306 305 305 305 305 307 307 305 305 303 302 305 309 312 315 315 314 313 315 321 323 324 319 316 315 316 319 321 322 322 320 319 319 319 320 321 321 324 324 325 339 347
306 306 307 308 308 309 309 307 307 307 308 308 304 302 308 310 311 315 316 314 313 314 318 320 322 322 319 316 319 319 320 320 321 322 322 322 318 319 321 321 322 323 324 326 333
306 306 307 307 308 308 309 309 308 308 310 311 309 306 309 311 312 313 314 314 314 313 313 314 318 320 321 322 321 321 319 320 320 322 322 323 324 321 322 321 321 321 322 323 324
307 307 308 308 307 307 308 311 312 313 312 312 309 312 315 317 316 316 313 314 314 314 314 315 317 319 319 319 320 320 322 320 321 321 322 323 324 322 323 322 320 321 321 322 322
308 308 309 310 308 306 309 313 314 313 314 314 314 314 314 316 317 317 315 315 313 314 314 314 316 315 316 318 322 322 322 321 321 322 322 322 323 323 323 323 322 321 320 321 321
310 308 309 311 309 305 312 314 314 313 313 314 313 314 315 315 317 318 317 319 319 319 319 314 313 316 315 317 319 320 321 321 321 321 322 322 323 323 322 322 322 321 322 321 320
311 309 309 311 308 309 314 314 314 312 311 311 311 311 311 311 312 313 313 317 318 320 319 319 315 314 317 317 317 318 318 318 319 320 320 321 322 323 323 323 323 321 322 322 321
312 311 309 312 309 310 313 314 312 313 312 311 312 312 313 314 313 314 314 314 313 314 316 318 319 320 317 316 317 317 316 317 318 319 319 319 320 320 323 324 323 322 322 322 322
312 311 310 306 308 310 316 312 312 312 312 314 318 317 317 318 318 319 316 314 312 314 315 314 317 319 319 319 317 318 318 318 317 317 319 318 320 319 323 324 324 322 322 322 322
310 308 309 306 306 311 313 311 311 313 320 317 315 314 311 316 317 317 317 319 319 318 318 318 317 320 321 320 320 320 321 321 322 321 318 317 318 319 323 324 324 322 322 322 323
307 307 307 308 307 312 311 309 311 316 321 316 310 309 308 308 309 310 311 314 317 317 318 317 315 318 318 318 319 321 321 322 322 321 324 317 317 318 320 322 323 324 323 323 323
307 307 307 308 309 311 309 309 312 317 314 312 308 308 307 308 307 308 308 308 315 316 316 316 316 316 318 317 317 317 318 325 325 324 324 318 317 318 320 323 324 323 323 323 323
307 307 308 310 312 311 308 309 313 315 311 308 307 306 306 306 306 308 307 307 309 312 313 316 317 316 316 316 318 317 317 320 324 322 322 320 319 318 319 320 323 324 324 324 323
306 307 311 313 313 310 308 312 313 313 308 307 306 306 306 307 307 307 307 308 308 314 317 319 319 316 317 318 318 320 320 319 321 322 325 323 320 318 319 320 320 320 321 320 322
304 306 312 312 311 308 308 312 313 309 308 306 306 306 307 307 308 308 308 308 309 309 314 316 318 315 317 318 318 319 320 323 317 323 322 322 322 320 325 326 321 320 319 320 321
304 305 311 309 309 309 309 311 308 308 308 308 307 306 307 308 308 308 308 309 311 313 314 315 316 315 315 320 320 319 321 321 320 322 322 320 319 324 327 325 326 327 319 321 326
302 306 310 308 309 309 309 307 307 308 308 308 308 307 308 308 308 309 312 310 310 311 314 314 314 315 316 315 318 319 321 321 320 321 322 321 322 325 326 325 325 331 324 344 343
301 306 310 307 308 306 306 306 306 309 309 308 307 307 309 308 308 309 311 309 310 312 314 314 315 313 314 320 316 316 315 321 321 323 323 322 325 322 326 326 326 335 341 343 344
304 308 306 305 305 305 305 306 308 308 307 306 306 307 308 307 307 308 308 309 310 309 312 313 313 314 314 316 315 317 317 318 319 322 322 323 322 323 322 326 327 329 337 342 343
306 305 304 304 303 304 304 306 306 307 306 305 307 307 306 307 307 309 310 310 310 311 313 313 309 313 314 314 313 314 315 316 317 318 323 324 325 326 325 328 324 326 333 336 341
302 302 301 301 303 304 304 305 306 306 305 306 306 306 308 309 309 311 309 308 309 309 310 313 315 313 313 313 315 316 316 316 318 319 320 323 326 325 326 327 328 329 333 336 340
299 300 300 302 302 302 304 305 305 305 305 305 306 307 310 309 308 307 306 307 307 308 308 309 311 311 310 314 314 317 320 320 319 318 319 326 324 323 326 328 329 330 329 326 332
Wind_Speed
21 22 22 22 22 22 22 21 20 20 21 22 23 25 25 27 30 29 31 24 20 10 18 17 15 13 13 17 19 17 4 10 13 15 12 21 11 34 24 10 3 6 24 40 40
24 25 27 28 28 29 29 30 30 29 28 26 27 25 21 27 30 34 12 4 8 17 18 11 11 9 15 16 14 9 7 19 13 12 11 18 22 29 13 15 7 24 33 41 41
28 29 29 29 30 31 31 32 32 33 33 34 35 34 32 26 23 6 2 4 5 10 18 17 14 16 24 27 25 11 20 17 22 26 31 24 28 33 16 7 12 18 34 37 39
29 29 28 28 28 28 28 29 30 31 32 31 30 32 30 17 6 7 11 10 13 6 15 16 15 6 5 8 29 18 23 30 27 32 32 18 24 20 13 18 14 20 25 31 34
27 27 26 26 27 28 28 28 28 29 30 31 31 29 19 9 22 16 16 13 14 10 13 18 20 16 8 6 20 19 19 30 30 37 40 33 22 24 18 27 22 10 6 33 33
27 27 27 28 29 29 30 30 29 26 25 25 26 21 14 9 8 8 10 7 7 10 12 15 9 19 13 13 18 15 21 23 30 34 33 25 23 19 32 30 27 12 5 18 30
29 29 30 31 33 34 34 34 30 29 27 23 20 18 17 40 12 8 8 12 11 12 17 18 22 22 13 10 33 28 19 18 25 20 21 19 17 20 33 29 25 23 11 16 16
32 33 34 36 36 37 35 30 28 29 24 23 17 8 16 20 18 18 23 21 18 13 19 19 22 26 28 22 27 16 14 19 12 18 22 11 26 22 30 28 27 26 25 17 22
34 35 36 37 38 37 36 29 27 22 21 21 7 3 17 7 16 12 17 20 16 20 18 15 17 20 17 8 9 9 18 17 15 16 11 14 28 17 35 28 23 26 27 20 20
36 37 38 37 37 37 31 28 15 18 9 13 6 7 16 11 13 7 8 9 14 15 21 17 10 7 6 6 15 10 12 14 21 17 18 14 27 19 24 26 25 26 30 27 27
36 37 38 39 37 34 24 22 20 7 8 16 28 28 33 26 26 13 6 12 11 14 10 19 8 16 10 15 19 17 18 20 20 16 22 18 22 20 19 28 22 25 28 26 37
38 39 40 41 36 20 18 16 15 20 27 37 47 44 50 47 42 45 35 19 13 12 10 12 20 17 14 18 20 22 23 23 21 19 16 16 26 20 18 20 33 28 29 31 32
41 42 44 41 33 18 18 14 17 20 8 35 16 14 17 23 34 35 26 27 15 13 13 16 21 16 21 22 22 20 19 17 20 18 21 17 20 14 11 24 34 35 38 35 39
43 43 42 44 21 14 8 18 19 21 4 8 10 12 18 5 5 20 17 21 11 14 16 17 19 22 20 17 23 21 19 21 19 14 13 10 14 16 7 15 16 32 34 36 40
43 43 38 35 23 9 13 20 20 13 5 6 13 17 36 8 13 15 13 18 4 3 4 15 23 26 10 14 19 16 13 11 14 14 14 16 10 10 6 18 14 20 26 38 41
47 39 42 27 18 9 20 23 16 3 7 3 19 22 26 31 30 30 27 14 16 8 12 16 31 21 14 18 21 16 7 9 11 11 11 15 13 15 13 17 17 14 21 37 41
47 38 34 18 6 7 16 20 3 5 19 14 26 22 19 19 24 23 26 18 6 7 7 13 21 28 10 8 18 22 9 5 3 4 10 14 15 13 10 15 18 16 26 33 36
46 39 21 5 2 9 17 5 5 8 15 21 18 23 14 23 21 24 22 19 12 13 10 8 14 11 4 12 8 3 8 8 6 5 10 16 16 13 20 18 23 29 32 42 38
45 31 10 14 3 7 16 3 4 15 17 17 18 16 22 17 15 20 17 20 15 4 3 6 6 10 12 4 3 4 5 6 5 6 4 4 22 16 21 21 19 21 31 31 24
42 26 9 3 5 14 3 8 12 16 18 14 15 12 17 21 14 15 12 10 16 11 12 4 6 9 4 4 15 10 3 5 3 5 4 7 10 10 1 8 15 23 22 33 39
30 15 2 9 16 15 5 9 17 24 21 12 15 17 14 15 15 16 5 19 13 9 4 2 4 4 5 4 4 3 4 5 3 3 4 8 10 6 4 5 12 22 29 22 17
17 4 9 20 9 10 4 11 23 22 22 9 11 13 7 8 7 10 6 9 25 14 5 2 1 4 6 11 2 3 4 5 4 6 6 5 7 3 7 6 15 21 21 24 21
20 10 16 29 5 10 14 17 24 19 10 10 11 14 4 3 9 11 7 9 18 9 2 3 3 4 7 7 10 2 8 5 9 1 13 7 4 14 15 11 21 8 23 28 32
8 5 13 23 27 16 14 18 17 20 15 21 15 16 5 15 14 12 22 11 9 11 23 5 4 4 3 10 9 10 11 4 3 5 3 9 12 8 17 17 16 12 19 23 29
5 5 14 7 13 17 16 14 17 15 16 20 6 17 19 13 18 14 18 19 18 7 5 5 3 4 9 14 17 17 18 17 6 7 5 4 6 5 8 14 9 10 10 10 23
9 9 13 23 21 17 14 13 18 19 15 11 15 21 17 13 15 11 17 16 12 14 4 2 3 7 8 14 9 16 18 18 20 16 15 13 4 5 3 7 4 8 8 5 11
11 17 10 11 13 11 11 18 20 20 7 25 20 15 11 13 26 35 34 33 22 14 17 11 5 4 4 9 17 10 9 17 18 15 14 7 7 6 3 6 3 14 19 23 17
Wind_Direction
2 358 354 351 347 343 338 333 327 321 316 313 312 314 319 315 309 302 288 293 270 229 221 245 221 205 224 238 228 236 231 246 237 244 255 276 287 285 303 329 31 99 150 156 153
359 356 353 350 348 344 340 337 334 331 326 322 320 318 324 319 312 300 300 324 267 242 239 240 249 243 241 227 225 203 224 238 250 255 258 270 277 279 297 300 258 109 126 143 154
357 354 353 349 346 343 340 335 332 328 325 323 322 323 328 328 322 268 315 323 351 249 228 229 237 272 255 234 225 222 233 245 254 250 258 265 277 284 301 310 229 149 143 153 161
355 353 350 347 343 339 333 327 324 320 315 313 311 314 322 323 302 261 257 276 287 292 208 216 218 232 261 236 223 245 239 240 255 260 269 269 288 293 304 274 262 220 173 168 169
353 350 347 343 339 336 331 326 321 316 313 310 307 311 320 279 268 271 272 284 291 237 211 193 207 205 227 229 250 258 241 250 248 248 258 271 264 269 291 283 274 218 264 182 181
352 350 346 341 338 336 332 330 325 320 317 310 305 304 304 267 319 286 266 261 272 241 222 211 215 216 270 240 243 272 270 259 245 247 245 247 260 269 274 274 264 261 196 165 181
351 348 346 344 341 340 338 333 327 321 318 312 299 294 273 267 259 243 224 251 261 243 236 236 238 247 231 266 251 259 271 275 256 265 254 259 255 242 252 265 267 249 216 195 202
350 348 347 344 341 337 335 333 323 312 314 310 308 257 257 292 286 231 224 242 258 243 248 257 255 258 253 265 281 281 270 254 255 254 259 248 250 249 254 260 255 254 254 222 200
348 346 344 343 340 335 332 334 318 311 307 312 302 243 267 291 273 280 227 237 253 248 246 253 262 271 272 269 270 253 255 261 265 245 247 228 256 241 239 241 244 249 248 242 230
346 343 340 340 338 333 332 340 329 319 329 331 288 268 265 271 283 227 254 251 240 247 236 226 256 238 246 233 236 238 253 253 256 263 234 243 257 246 218 236 246 250 246 247 244
343 340 337 335 337 333 337 1 352 336 349 265 258 252 267 273 290 256 233 223 236 259 255 206 218 229 217 229 243 263 265 254 253 242 243 248 254 243 222 219 233 231 230 238 235
341 339 334 333 340 337 339 338 347 316 301 281 272 265 268 269 272 274 277 243 206 231 249 254 233 234 235 246 240 235 245 258 272 273 278 268 253 249 234 223 216 218 221 233 239
338 340 336 330 342 337 325 348 334 326 301 301 284 261 268 252 245 260 254 252 229 232 231 246 260 243 225 241 248 242 246 249 245 254 268 266 274 272 264 229 211 212 213 223 226
338 340 340 334 341 331 18 344 335 328 298 280 16 22 16 343 347 311 258 252 258 273 239 246 262 252 266 267 236 247 238 249 262 260 247 251 262 262 249 278 246 205 201 215 222
339 336 333 335 312 331 328 336 322 322 308 52 26 339 354 16 297 312 343 315 185 248 275 299 304 300 282 282 302 281 291 332 309 293 293 249 254 264 252 233 262 197 206 214 221
336 336 332 324 305 342 345 323 312 232 248 355 12 353 346 341 329 327 322 319 243 207 207 215 257 259 240 244 260 269 271 313 325 297 273 251 234 251 243 247 268 252 224 209 220
336 337 326 304 308 357 340 329 296 231 349 350 349 348 330 325 335 336 328 323 346 333 312 297 274 275 231 268 277 279 215 210 285 268 259 256 240 228 220 225 215 238 232 230 218
340 337 329 273 336 344 342 330 260 15 320 345 339 327 343 341 336 334 323 312 307 296 287 277 290 249 267 255 290 232 325 232 212 222 264 259 260 234 246 244 239 238 238 236 227
342 346 11 16 151 301 327 302 298 341 343 332 335 333 330 338 335 339 318 300 285 112 328 298 253 324 296 243 338 307 255 297 179 194 258 277 270 240 232 236 237 255 257 263 253
342 344 26 59 315 308 280 247 301 321 330 332 329 341 328 326 339 330 309 297 324 309 162 247 282 255 314 14 184 200 151 313 4 182 226 235 270 247 290 318 266 240 249 253 263
348 326 218 343 339 295 245 284 308 324 343 350 339 322 321 343 332 314 307 299 343 341 351 271 260 289 295 208 181 162 151 180 192 161 204 261 253 190 261 313 317 294 235 239 208
353 311 357 348 321 300 6 340 330 322 357 344 333 320 356 344 300 311 287 293 322 310 316 132 249 277 265 257 52 164 323 204 179 184 208 245 270 353 295 347 315 274 238 115 100
328 277 346 341 2 357 341 330 315 339 329 348 342 337 61 343 307 284 271 303 316 321 7 341 244 308 333 39 43 354 285 302 255 295 235 244 262 348 336 352 311 339 100 95 96
324 312 343 336 1 348 326 312 339 324 334 357 328 319 6 323 311 295 307 326 324 295 282 259 259 238 272 307 292 280 287 255 188 238 288 258 286 2 337 315 278 359 58 106 103
334 346 345 324 330 316 316 313 321 344 355 342 335 338 321 312 312 299 323 318 326 293 273 173 236 277 298 297 289 286 283 288 211 244 251 270 276 135 246 277 274 0 3 120 101
352 343 333 298 321 321 313 353 347 344 348 340 327 318 322 298 294 295 307 295 283 300 318 208 283 311 290 290 317 305 274 254 247 205 220 251 257 180 259 328 296 269 281 96 136
336 334 329 297 320 320 343 338 333 340 332 323 317 324 296 316 307 292 280 271 261 280 288 288 282 356 259 333 311 278 299 228 217 215 199 200 185 176 101 286 51 77 86 71 87